Location: Saratoga Springs
(43.0831°N, 73.7850°W)
Time: 18:49:47
(UTC-04:00)

Transit 2A - All Passes

Search period start: 16 April 2024 00:00
Search period end: 26 April 2024 00:00
Orbit: 597 x 956 km, 66.7° (Epoch: 16 April)

Date Brightness Start Highest point End Pass type
(mag) Time Alt. Az. Time Alt. Az. Time Alt. Az.
16 Apr - 08:09:39 10° SSW 08:14:00 82° ESE 08:18:39 10° NNE daylight
16 Apr - 09:55:05 10° WNW 09:57:48 15° NW 10:00:38 10° N daylight
16 Apr - 15:11:37 10° N 15:15:14 18° NE 15:19:02 10° E daylight
16 Apr - 16:53:34 10° NNW 16:59:05 83° ENE 17:05:07 10° SSE daylight
16 Apr - 18:38:19 10° WNW 18:41:41 16° WSW 18:45:11 10° SW daylight
17 Apr - 07:34:45 10° S 07:38:57 51° ESE 07:43:26 10° NE daylight
17 Apr - 09:18:58 10° W 09:22:23 21° NW 09:26:00 10° N daylight
17 Apr - 14:37:07 10° N 14:39:46 14° NE 14:42:30 10° ENE daylight
17 Apr - 16:18:30 10° NNW 16:23:56 59° NE 16:29:51 10° SE daylight
17 Apr - 18:02:20 10° WNW 18:06:45 24° WSW 18:11:25 10° SSW daylight
18 Apr - 07:00:06 10° S 07:03:58 32° ESE 07:08:03 10° NE daylight
18 Apr - 08:43:08 10° WSW 08:47:02 29° NW 08:51:11 10° NNE daylight
18 Apr - 14:03:24 10° NNE 14:04:13 10° NNE 14:05:02 10° NE daylight
18 Apr - 15:43:31 10° NNW 15:48:43 42° NE 15:54:21 10° ESE daylight
18 Apr - 17:26:45 10° NW 17:31:47 34° WSW 17:37:10 10° S daylight
19 Apr - 06:25:49 10° SSE 06:29:03 21° ESE 06:32:25 10° ENE daylight
19 Apr - 08:07:34 10° SW 08:11:45 43° NW 08:16:16 10° NNE daylight
19 Apr - 15:08:36 10° NNW 15:13:26 31° NE 15:18:39 10° ESE daylight
19 Apr - 16:51:23 10° NW 16:56:46 49° WSW 17:02:35 10° S daylight
20 Apr - 05:52:13 10° SE 05:54:11 13° ESE 05:56:13 10° ENE daylight
20 Apr - 07:32:12 10° SW 07:36:33 66° WNW 07:41:15 10° NNE daylight
20 Apr - 09:18:59 10° NW 09:20:43 12° NNW 09:22:30 10° NNW daylight
20 Apr - 14:33:46 10° N 14:38:06 23° NE 14:42:44 10° E daylight
20 Apr - 16:16:08 10° NW 16:21:41 71° WSW 16:27:44 10° SSE daylight
20 Apr - 18:02:53 10° W 18:04:02 11° WSW 18:05:11 10° WSW daylight
21 Apr - 06:57:04 10° SSW 07:01:25 81° ESE 07:06:08 10° NNE daylight
21 Apr - 08:42:25 10° WNW 08:45:13 16° NW 08:48:10 10° N daylight
21 Apr - 13:59:02 10° N 14:02:42 18° NE 14:06:33 10° E daylight
21 Apr - 15:40:59 10° NNW 15:46:34 82° ENE 15:52:39 10° SSE daylight
21 Apr - 17:25:41 10° WNW 17:29:10 17° WSW 17:32:47 10° SW daylight
22 Apr - 06:22:09 10° S 06:26:22 50° ESE 06:30:53 10° NE daylight
22 Apr - 08:06:19 10° W 08:09:48 22° NW 08:13:30 10° N daylight
22 Apr - 13:24:30 10° N 13:27:12 14° NE 13:30:01 10° ENE daylight
22 Apr - 15:05:56 10° NNW 15:11:24 59° NE 15:17:21 10° SE daylight
22 Apr - 16:49:44 10° WNW 16:54:14 24° WSW 16:59:00 10° SSW daylight
23 Apr - 05:47:31 10° S 05:51:23 32° ESE 05:55:29 10° NE daylight
23 Apr - 07:30:30 10° WSW 07:34:26 30° NW 07:38:40 10° NNE daylight
23 Apr - 12:50:40 10° NNE 12:51:39 10° NNE 12:52:38 10° NE daylight
23 Apr - 14:30:55 10° NNW 14:36:10 42° NE 14:41:51 10° ESE daylight
23 Apr - 16:14:09 10° NW 16:19:15 35° WSW 16:24:43 10° S daylight
24 Apr - 05:13:14 10° SSE 05:16:28 20° ESE 05:19:51 10° ENE visible
24 Apr - 06:54:55 10° SW 06:59:09 44° NW 07:03:43 10° NNE daylight
24 Apr - 13:56:00 10° NNW 14:00:53 31° NE 14:06:09 10° ESE daylight
24 Apr - 15:38:46 10° NW 15:44:13 50° WSW 15:50:06 10° S daylight
25 Apr - 04:39:39 10° SE 04:41:36 13° ESE 04:43:36 10° ENE visible
25 Apr - 06:19:33 10° SW 06:23:56 67° WNW 06:28:41 10° NNE daylight
25 Apr - 08:06:13 10° WNW 08:08:07 12° NNW 08:10:04 10° N daylight
25 Apr - 13:21:09 10° N 13:25:31 23° NE 13:30:12 10° E daylight
25 Apr - 15:03:31 10° NW 15:09:08 72° WSW 15:15:14 10° SSE daylight
25 Apr - 16:50:01 10° W 16:51:29 11° WSW 16:53:00 10° WSW daylight
